| time (UTC) | temp F | wind direction | speed MPH | gust MPH | rain 1hr in | rain 24hr in | rain mn in | humidity % | barometer mb |
| 20260504183406 | 62 | 70 | 2.0 | 7.0 | 0.00 | 0.01 | 0.01 | 56 | 1017.0 |
| 20260504182905 | 63 | 129 | 2.0 | 9.0 | 0.00 | 0.01 | 0.01 | 56 | 1016.9 |
| 20260504182405 | 63 | 107 | 2.0 | 8.0 | 0.00 | 0.01 | 0.01 | 55 | 1016.9 |
| 20260504181906 | 63 | 71 | 3.0 | 10.0 | 0.00 | 0.01 | 0.01 | 54 | 1017.0 |
| 20260504181407 | 63 | 68 | 2.0 | 9.0 | 0.00 | 0.01 | 0.01 | 54 | 1017.0 |
| 20260504180905 | 63 | 67 | 4.0 | 12.0 | 0.00 | 0.01 | 0.01 | 53 | 1017.0 |
| 20260504180406 | 64 | 119 | 3.0 | 12.0 | 0.00 | 0.01 | 0.01 | 52 | 1016.9 |
| 20260504175906 | 64 | 148 | 6.0 | 15.0 | 0.00 | 0.01 | 0.01 | 52 | 1016.9 |
| 20260504175406 | 64 | 105 | 3.0 | 8.0 | 0.00 | 0.01 | 0.01 | 53 | 1016.9 |
| 20260504174906 | 64 | 92 | 1.0 | 12.0 | 0.00 | 0.01 | 0.01 | 53 | 1016.9 |
| 20260504174406 | 64 | 69 | 2.0 | 12.0 | 0.00 | 0.01 | 0.01 | 53 | 1016.9 |
| 20260504173906 | 64 | 75 | 2.0 | 10.0 | 0.00 | 0.01 | 0.01 | 52 | 1016.9 |
| 20260504173406 | 64 | 83 | 6.0 | 16.0 | 0.00 | 0.01 | 0.01 | 51 | 1017.0 |
| 20260504172906 | 65 | 111 | 4.0 | 12.0 | 0.00 | 0.01 | 0.01 | 51 | 1017.0 |
| 20260504172406 | 65 | 104 | 5.0 | 14.0 | 0.00 | 0.01 | 0.01 | 50 | 1016.9 |
| 20260504171906 | 65 | 85 | 2.0 | 13.0 | 0.00 | 0.01 | 0.01 | 50 | 1017.0 |
| 20260504171407 | 66 | 94 | 2.0 | 10.0 | 0.00 | 0.01 | 0.01 | 50 | 1017.0 |
| 20260504170907 | 66 | 95 | 5.0 | 12.0 | 0.00 | 0.02 | 0.01 | 49 | 1016.9 |
| 20260504170407 | 66 | 126 | 5.0 | 12.0 | 0.00 | 0.02 | 0.01 | 49 | 1016.8 |
| 20260504160407 | 68 | 116 | 2.0 | 8.0 | 0.00 | 0.09 | 0.01 | 49 | 1016.7 |
| 20260504150906 | 66 | 6 | 0.0 | 13.0 | 0.00 | 0.09 | 0.01 | 52 | 1016.8 |
| 20260504150406 | 66 | 87 | 2.0 | 12.0 | 0.00 | 0.09 | 0.01 | 53 | 1016.8 |
| 20260504140906 | 67 | 118 | 5.0 | 9.0 | 0.00 | 0.09 | 0.01 | 54 | 1017.1 |
| 20260504140405 | 68 | 10 | 2.0 | 8.0 | 0.00 | 0.09 | 0.01 | 53 | 1017.2 |
| 20260504130406 | 66 | 174 | 3.0 | 9.0 | 0.00 | 0.09 | 0.01 | 56 | 1017.3 |
| 20260504110405 | 65 | 96 | 0.0 | 7.0 | 0.00 | 0.09 | 0.01 | 56 | 1017.6 |
| 20260504081905 | 58 | 141 | 1.0 | 9.0 | 0.00 | 0.09 | 0.00 | 84 | 1017.3 |
| 20260504081405 | 58 | 140 | 2.0 | 6.0 | 0.00 | 0.09 | 0.00 | 84 | 1017.2 |
| 20260504080405 | 58 | 135 | 1.0 | 8.0 | 0.00 | 0.09 | 0.00 | 86 | 1017.1 |
| 20260504070404 | 54 | 80 | 0.0 | 0.0 | 0.00 | 0.09 | 0.00 | 93 | 1016.6 |
| 20260504050404 | 52 | 88 | 2.0 | 8.0 | 0.00 | 0.09 | 0.00 | 93 | 1015.8 |
| 20260504045904 | 52 | 118 | 2.0 | 7.0 | 0.00 | 0.09 | 0.00 | 93 | 1015.7 |
| 20260504045404 | 52 | 110 | 3.0 | 6.0 | 0.00 | 0.09 | 0.00 | 93 | 1015.7 |
| 20260504044904 | 52 | 94 | 2.0 | 6.0 | 0.00 | 0.09 | 0.00 | 93 | 1015.7 |
| 20260504044405 | 52 | 111 | 1.0 | 3.0 | 0.00 | 0.09 | 0.00 | 93 | 1015.7 |
| 20260504043905 | 53 | 115 | 1.0 | 3.0 | 0.00 | 0.09 | 0.00 | 93 | 1015.7 |
| 20260504043404 | 53 | 115 | 0.0 | 0.0 | 0.00 | 0.09 | 0.00 | 93 | 1015.8 |
| 20260504042905 | 53 | 115 | 0.0 | 0.0 | 0.00 | 0.09 | 0.00 | 93 | 1015.7 |
| 20260504042407 | 53 | 115 | 0.0 | 0.0 | 0.00 | 0.09 | 0.00 | 92 | 1015.7 |
| 20260504041405 | 53 | 113 | 0.0 | 3.0 | 0.00 | 0.09 | 0.00 | 92 | 1015.7 |
| 20260504040405 | 53 | 137 | 0.0 | 0.0 | 0.00 | 0.09 | 0.00 | 92 | 1015.7 |
| 20260504035904 | 53 | 136 | 1.0 | 3.0 | 0.00 | 0.09 | 0.00 | 92 | 1015.7 |
| 20260504035405 | 53 | 136 | 1.0 | 3.0 | 0.00 | 0.09 | 0.00 | 93 | 1015.8 |
| 20260504034904 | 53 | 135 | 0.0 | 0.0 | 0.00 | 0.09 | 0.00 | 93 | 1015.7 |
| 20260504034405 | 53 | 135 | 1.0 | 3.0 | 0.00 | 0.09 | 0.00 | 93 | 1015.7 |
| 20260504033405 | 53 | 132 | 2.0 | 5.0 | 0.00 | 0.09 | 0.00 | 93 | 1015.7 |
| 20260504032905 | 53 | 148 | 0.0 | 3.0 | 0.00 | 0.09 | 0.00 | 93 | 1015.8 |
| 20260504032405 | 53 | 148 | 1.0 | 6.0 | 0.00 | 0.09 | 0.00 | 93 | 1015.8 |
| 20260504031905 | 53 | 144 | 1.0 | 3.0 | 0.00 | 0.09 | 0.00 | 93 | 1015.8 |
| 20260504031405 | 53 | 141 | 0.0 | 0.0 | 0.00 | 0.09 | 0.00 | 93 | 1015.9 |
| 20260504030905 | 53 | 141 | 0.0 | 0.0 | 0.00 | 0.09 | 0.00 | 93 | 1015.9 |
| 20260504030405 | 53 | 141 | 0.0 | 0.0 | 0.00 | 0.09 | 0.00 | 93 | 1015.9 |
| 20260504025905 | 53 | 141 | 0.0 | 0.0 | 0.00 | 0.09 | 0.00 | 93 | 1015.8 |
| 20260504025405 | 53 | 141 | 0.0 | 0.0 | 0.00 | 0.09 | 0.00 | 93 | 1015.8 |
| 20260504024905 | 53 | 141 | 0.0 | 1.0 | 0.00 | 0.09 | 0.00 | 93 | 1015.8 |
| 20260504024405 | 53 | 141 | 0.0 | 3.0 | 0.00 | 0.09 | 0.00 | 93 | 1015.9 |
| 20260504023904 | 53 | 126 | 1.0 | 6.0 | 0.00 | 0.09 | 0.00 | 93 | 1015.8 |
| 20260504023404 | 53 | 78 | 0.0 | 5.0 | 0.00 | 0.09 | 0.00 | 93 | 1015.8 |
| 20260504022904 | 53 | 78 | 0.0 | 0.0 | 0.00 | 0.09 | 0.00 | 93 | 1015.8 |
| 20260504022404 | 53 | 78 | 0.0 | 0.0 | 0.00 | 0.09 | 0.00 | 93 | 1015.9 |
| 20260504021904 | 53 | 78 | 1.0 | 3.0 | 0.00 | 0.09 | 0.00 | 93 | 1015.8 |
| 20260504021405 | 53 | 78 | 0.0 | 1.0 | 0.00 | 0.09 | 0.00 | 93 | 1015.8 |
| 20260504020905 | 53 | 78 | 0.0 | 0.0 | 0.00 | 0.09 | 0.00 | 93 | 1015.8 |
| 20260504020404 | 53 | 78 | 0.0 | 0.0 | 0.00 | 0.09 | 0.00 | 92 | 1015.9 |
| 20260504015905 | 53 | 78 | 0.0 | 0.0 | 0.00 | 0.09 | 0.00 | 92 | 1015.9 |
| 20260504014404 | 53 | 78 | 0.0 | 1.0 | 0.00 | 0.09 | 0.00 | 92 | 1016.0 |
| 20260504013904 | 53 | 78 | 0.0 | 2.0 | 0.00 | 0.09 | 0.00 | 92 | 1016.0 |
| 20260504013405 | 53 | 78 | 0.0 | 2.0 | 0.00 | 0.09 | 0.00 | 92 | 1016.0 |
| 20260504012905 | 53 | 78 | 0.0 | 0.0 | 0.00 | 0.09 | 0.00 | 92 | 1016.0 |
| 20260504012404 | 53 | 78 | 0.0 | 0.0 | 0.00 | 0.09 | 0.00 | 92 | 1016.1 |
| 20260504011904 | 53 | 78 | 0.0 | 0.0 | 0.00 | 0.09 | 0.00 | 92 | 1016.1 |
| 20260504011405 | 53 | 78 | 0.0 | 0.0 | 0.00 | 0.09 | 0.00 | 92 | 1016.1 |
| 20260504010904 | 53 | 78 | 0.0 | 0.0 | 0.00 | 0.09 | 0.00 | 92 | 1016.0 |
| 20260504010405 | 53 | 78 | 0.0 | 0.0 | 0.00 | 0.09 | 0.00 | 92 | 1016.1 |
| 20260504005905 | 53 | 78 | 0.0 | 3.0 | 0.00 | 0.09 | 0.00 | 92 | 1016.1 |
| 20260504004904 | 54 | 78 | 0.0 | 0.0 | 0.00 | 0.09 | 0.00 | 92 | 1016.1 |
| 20260504004405 | 54 | 78 | 0.0 | 0.0 | 0.00 | 0.09 | 0.00 | 92 | 1016.1 |
| 20260504003905 | 54 | 78 | 0.0 | 3.0 | 0.00 | 0.09 | 0.00 | 92 | 1016.1 |
| 20260504003405 | 54 | 78 | 0.0 | 0.0 | 0.00 | 0.09 | 0.00 | 92 | 1016.1 |
| 20260504002905 | 54 | 78 | 0.0 | 0.0 | 0.00 | 0.09 | 0.00 | 92 | 1016.1 |
| 20260504002405 | 54 | 78 | 0.0 | 5.0 | 0.00 | 0.09 | 0.00 | 92 | 1016.2 |
| 20260504001904 | 54 | 79 | 0.0 | 2.0 | 0.00 | 0.09 | 0.00 | 92 | 1016.1 |
| 20260504001404 | 54 | 74 | 0.0 | 0.0 | 0.00 | 0.09 | 0.00 | 92 | 1016.2 |
| 20260504000904 | 54 | 74 | 0.0 | 2.0 | 0.00 | 0.09 | 0.00 | 91 | 1016.2 |
| 20260504000405 | 54 | 74 | 0.0 | 2.0 | 0.00 | 0.09 | 0.00 | 91 | 1016.2 |
| 20260503235905 | 54 | 74 | 0.0 | 0.0 | 0.00 | 0.09 | 0.00 | 91 | 1016.2 |
| 20260503235404 | 54 | 74 | 0.0 | 5.0 | 0.00 | 0.09 | 0.00 | 91 | 1016.2 |
| 20260503234905 | 54 | 46 | 0.0 | 2.0 | 0.00 | 0.09 | 0.00 | 91 | 1016.2 |
| 20260503234404 | 54 | 92 | 0.0 | 2.0 | 0.00 | 0.09 | 0.00 | 91 | 1016.2 |
| 20260503233904 | 54 | 95 | 0.0 | 0.0 | 0.00 | 0.09 | 0.00 | 91 | 1016.2 |
| 20260503233405 | 55 | 95 | 0.0 | 0.0 | 0.00 | 0.09 | 0.00 | 91 | 1016.2 |
| 20260503232904 | 55 | 94 | 0.0 | 5.0 | 0.00 | 0.09 | 0.00 | 91 | 1016.1 |
| 20260503232405 | 55 | 92 | 1.0 | 5.0 | 0.00 | 0.09 | 0.00 | 91 | 1016.2 |
| 20260503231904 | 55 | 134 | 0.0 | 2.0 | 0.00 | 0.09 | 0.00 | 90 | 1016.2 |
| 20260503231404 | 55 | 134 | 0.0 | 0.0 | 0.00 | 0.09 | 0.00 | 90 | 1016.2 |
| 20260503230904 | 55 | 134 | 0.0 | 1.0 | 0.00 | 0.09 | 0.00 | 90 | 1016.1 |
| 20260503230405 | 55 | 95 | 0.0 | 0.0 | 0.00 | 0.09 | 0.00 | 90 | 1016.2 |
| 20260503225904 | 55 | 95 | 0.0 | 0.0 | 0.00 | 0.09 | 0.09 | 90 | 1016.2 |
| 20260503225404 | 55 | 94 | 0.0 | 3.0 | 0.00 | 0.09 | 0.09 | 90 | 1016.2 |
| 20260503224904 | 55 | 138 | 1.0 | 2.0 | 0.00 | 0.09 | 0.09 | 89 | 1016.3 |
| 20260503224405 | 56 | 135 | 0.0 | 0.0 | 0.00 | 0.09 | 0.09 | 89 | 1016.3 |
| 20260503223904 | 56 | 135 | 0.0 | 0.0 | 0.00 | 0.09 | 0.09 | 89 | 1016.3 |
| 20260503223406 | 56 | 135 | 0.0 | 1.0 | 0.00 | 0.09 | 0.09 | 89 | 1016.3 |
| 20260503222905 | 56 | 135 | 0.0 | 6.0 | 0.00 | 0.09 | 0.09 | 89 | 1016.2 |
| 20260503222405 | 56 | 122 | 1.0 | 5.0 | 0.00 | 0.09 | 0.09 | 89 | 1016.2 |
| 20260503221905 | 56 | 132 | 0.0 | 3.0 | 0.00 | 0.09 | 0.09 | 89 | 1016.2 |
| 20260503220904 | 56 | 132 | 0.0 | 0.0 | 0.00 | 0.09 | 0.09 | 89 | 1016.1 |
| 20260503220404 | 56 | 132 | 0.0 | 3.0 | 0.00 | 0.09 | 0.09 | 89 | 1016.2 |
| 20260503215404 | 56 | 132 | 0.0 | 1.0 | 0.00 | 0.09 | 0.09 | 89 | 1016.3 |
| 20260503214404 | 56 | 151 | 2.0 | 6.0 | 0.00 | 0.09 | 0.09 | 88 | 1016.3 |
| 20260503213904 | 56 | 137 | 1.0 | 7.0 | 0.00 | 0.09 | 0.09 | 88 | 1016.3 |
| 20260503212904 | 57 | 111 | 0.0 | 5.0 | 0.00 | 0.09 | 0.09 | 88 | 1016.3 |
| 20260503212404 | 57 | 103 | 0.0 | 5.0 | 0.00 | 0.09 | 0.09 | 88 | 1016.2 |
| 20260503211904 | 57 | 120 | 0.0 | 8.0 | 0.00 | 0.09 | 0.09 | 87 | 1016.1 |
| 20260503211404 | 57 | 82 | 2.0 | 9.0 | 0.00 | 0.09 | 0.09 | 87 | 1016.1 |
| 20260503210904 | 57 | 116 | 3.0 | 7.0 | 0.00 | 0.09 | 0.09 | 87 | 1016.0 |
| 20260503205904 | 57 | 119 | 1.0 | 9.0 | 0.00 | 0.09 | 0.09 | 87 | 1016.0 |
| 20260503205404 | 57 | 136 | 1.0 | 10.0 | 0.00 | 0.09 | 0.09 | 87 | 1015.9 |
| 20260503204904 | 57 | 125 | 0.0 | 9.0 | 0.00 | 0.09 | 0.09 | 86 | 1015.9 |
| 20260503204405 | 57 | 116 | 4.0 | 9.0 | 0.00 | 0.09 | 0.09 | 86 | 1015.9 |
| 20260503203905 | 57 | 154 | 3.0 | 8.0 | 0.00 | 0.09 | 0.09 | 86 | 1015.7 |
| 20260503203404 | 57 | 113 | 2.0 | 9.0 | 0.00 | 0.09 | 0.09 | 86 | 1015.7 |
| 20260503202905 | 57 | 83 | 2.0 | 6.0 | 0.00 | 0.09 | 0.09 | 86 | 1015.6 |
| 20260503202404 | 57 | 118 | 5.0 | 10.0 | 0.00 | 0.09 | 0.09 | 86 | 1015.5 |
| 20260503201904 | 58 | 156 | 2.0 | 8.0 | 0.00 | 0.09 | 0.09 | 86 | 1015.4 |
| 20260503201405 | 58 | 128 | 1.0 | 7.0 | 0.00 | 0.09 | 0.09 | 86 | 1015.3 |
| 20260503200404 | 58 | 158 | 0.0 | 10.0 | 0.00 | 0.09 | 0.09 | 86 | 1015.1 |
| 20260503195404 | 58 | 107 | 0.0 | 5.0 | 0.00 | 0.09 | 0.09 | 86 | 1015.1 |
| 20260503194904 | 58 | 149 | 1.0 | 5.0 | 0.00 | 0.09 | 0.09 | 85 | 1015.0 |
| 20260503194404 | 58 | 117 | 0.0 | 0.0 | 0.00 | 0.09 | 0.09 | 85 | 1015.1 |
| 20260503193904 | 58 | 117 | 1.0 | 7.0 | 0.00 | 0.09 | 0.09 | 84 | 1015.0 |
| 20260503193404 | 59 | 131 | 0.0 | 0.0 | 0.00 | 0.09 | 0.09 | 84 | 1015.0 |
| 20260503192905 | 59 | 124 | 1.0 | 7.0 | 0.00 | 0.09 | 0.09 | 84 | 1014.9 |
| 20260503191405 | 59 | 98 | 0.0 | 6.0 | 0.00 | 0.09 | 0.09 | 83 | 1014.8 |
| 20260503190906 | 59 | 97 | 1.0 | 7.0 | 0.00 | 0.09 | 0.09 | 83 | 1014.8 |
| 20260503190405 | 60 | 68 | 2.0 | 10.0 | 0.00 | 0.09 | 0.09 | 83 | 1014.7 |
| 20260503184905 | 60 | 51 | 0.0 | 5.0 | 0.00 | 0.09 | 0.09 | 84 | 1014.5 |
| 20260503184405 | 61 | 77 | 3.0 | 8.0 | 0.00 | 0.09 | 0.09 | 84 | 1014.5 |
| 20260503183906 | 61 | 93 | 3.0 | 7.0 | 0.00 | 0.09 | 0.09 | 84 | 1014.5 |